Starlink 5610

operational
NORAD ID: 57244 Int'l Des: 2023-094 Owner: SPXS Country: US Constellation: starlink
LEOCIRCULAR

About Starlink 5610

Description loading...

Live Position

Loading 3D Globe...

Upcoming Passes

Altitude History

Altitude vs Time

uPlot chart will show altitude changes over time

Two-Line Element Set

1 57244U 23094AC 26062.02770987 .00001282 00000-0 10995-3 0 9996
2 57244 43.0037 53.8785 0001589 270.9963 89.0697 15.02537071146265
Epoch: Mar 3, 2026 • Age: 10 hours

Current Status

Altitude 564.2 km
Velocity 7.58 km/s
Sub-Earth Point -24.11°S, 70.91°E
Launch Date Jul 7, 2023
Age 2.6 years
Type internet

Technical Details

Classification Payload
Mass 305.00 kg
Dry Mass 290.00 kg
Total Mass 305.00 kg
Length 0.20 m
Diameter 2.80 m
Span 9.00 m
Shape Box + pan
Manufacturer SPXS
Bus Type Starlink
Phase Status In Orbit
Owner/State SPXS/US

Large Constellations

Loading constellations...